Jordan Valley, OR

2:28 AM MDT on September 27, 2016 (GMT -0600)
Rome State

Weather History for KREO - July, 2013

Change the Weather History Date:

Saturday, July 20, 2013

  Actual Average Record
Temperature  
Mean Temperature 80 °F 72 °F  
Max Temperature 102 °F 93 °F 103 °F (2003)
Min Temperature 58 °F 52 °F 40 °F (2011)
Degree Days  
Heating Degree Days 0 0  
Month to date heating degree days 0 11  
Since 1 June heating degree days 94 136  
Since 1 July heating degree days 0 11  
Cooling Degree Days 15 8  
Month to date cooling degree days 255 131  
Year to date cooling degree days 413 203  
Since 1 June cooling degree days 391 193  
Growing Degree Days 30 (Base 50)    
Moisture  
Dew Point 27 °F    
Average Humidity 20    
Maximum Humidity 33    
Minimum Humidity 6    
Precipitation  
Precipitation 0.00 in 0.01 in 0.12 in (1965)
Month to date precipitation 0.41 0.23  
Year to date precipitation 3.03 5.85  
Sea Level Pressure  
Sea Level Pressure 29.82 in    
Wind  
Wind Speed 8 mph (North)    
Max Wind Speed 20 mph    
Max Gust Speed 29 mph    
T = Trace of Precipitation, MM = Missing Value Source: NWS Daily Summary

Daily Weather History Graph

Daily Weather History Graph

Search for Another Location

Airport or City:

Trip Planner

Search our weather history database for the weather conditions in past years. The results will help you decide how hot, cold, wet, or windy it might be!

Date:

Astronomy

Jul. 20, 2013 Rise Set
Actual Time 5:31 AM PDT 8:23 PM PDT
Civil Twilight 4:58 AM PDT 8:56 PM PDT
Nautical Twilight 4:16 AM PDT 9:38 PM PDT
Astronomical Twilight 3:27 AM PDT 10:26 PM PDT
Moon 6:30 PM PDT (7/20) 3:16 AM PDT (7/20)
Length of Visible Light 15h 57m
Length of Day
14h 51m
Waxing Gibbous, 94% of the Moon is Illuminated
Jul 20
Waxing Gibbous
Jul 22
Full
Jul 29
Last Quarter
Aug 6
New
Aug 14
First Quarter

Hourly Weather History & Observations

Time (PDT) Temp. Dew Point Humidity Pressure Visibility Wind Dir Wind Speed Gust Speed Precip Events Conditions
12:52 AM 72.0 °F 28.0 °F 20% 29.86 in - NE 8.1 mph - N/A   Unknown
1:52 AM 70.0 °F 28.9 °F 22% 29.87 in - NE 9.2 mph - N/A   Unknown
2:52 AM 66.0 °F 28.9 °F 25% 29.88 in - NE 8.1 mph - N/A   Unknown
3:52 AM 61.0 °F 28.9 °F 30% 29.89 in - SW 3.5 mph - N/A   Unknown
4:52 AM 60.1 °F 30.0 °F 32% 29.89 in - Calm Calm - N/A   Unknown
5:52 AM 59.0 °F 30.0 °F 33% 29.90 in - SE 8.1 mph - N/A   Unknown
6:52 AM 69.1 °F 33.1 °F 26% 29.88 in - SE 5.8 mph - N/A   Unknown
7:52 AM 77.0 °F 32.0 °F 19% 29.88 in - Calm Calm - N/A   Unknown
8:52 AM 82.0 °F 30.0 °F 15% 29.88 in - NNE 5.8 mph - N/A   Unknown
9:52 AM 86.0 °F 28.9 °F 13% 29.88 in - North 6.9 mph - N/A   Unknown
10:52 AM 89.1 °F 28.0 °F 11% 29.86 in - North 10.4 mph 16.1 mph N/A   Unknown
11:52 AM 91.9 °F 28.0 °F 10% 29.84 in - Variable 3.5 mph - N/A   Unknown
12:52 PM 96.1 °F 27.0 °F 9% 29.82 in - Variable 3.5 mph - N/A   Unknown
1:52 PM 98.1 °F 27.0 °F 8% 29.81 in - West 8.1 mph - N/A   Unknown
2:52 PM 99.0 °F 27.0 °F 8% 29.78 in - NW 5.8 mph - N/A   Unknown
3:52 PM 102.0 °F 26.1 °F 7% 29.75 in - SSW 16.1 mph - N/A   Unknown
4:52 PM 100.0 °F 25.0 °F 7% 29.75 in - Variable 4.6 mph - N/A   Unknown
5:52 PM 100.0 °F 21.9 °F 6% 29.73 in - North 15.0 mph 21.9 mph N/A   Unknown
6:52 PM 98.1 °F 23.0 °F 7% 29.72 in - NNW 16.1 mph 24.2 mph N/A   Unknown
7:52 PM 93.0 °F 21.9 °F 8% 29.73 in - North 16.1 mph - N/A   Unknown
8:52 PM 84.9 °F 23.0 °F 10% 29.75 in - NNW 6.9 mph - N/A   Unknown
9:52 PM 80.1 °F 23.0 °F 12% 29.77 in - NW 8.1 mph - N/A   Unknown
10:52 PM 79.0 °F 21.9 °F 12% 29.78 in - North 8.1 mph - N/A   Unknown
11:52 PM 73.0 °F 21.9 °F 15% 29.79 in - North 6.9 mph - N/A   Unknown